DG2GG-6 Weather Reports


time (UTC)temp
F
wind
direction
speed
knots
gust
knots
rain 1hr
in
rain 24hr
in
rain mn
in
humidity
%
barometer
mb
20260902092705 69 269 0.9 4.3 0.00 0.00 0.00 58 1023.3
20260902092205 69 335 0.0 2.6 0.00 0.00 0.00 61 1023.3
20260902091705 68 154 0.0 2.6 0.00 0.00 0.00 62 1023.3
20260902090705 67 196 0.9 1.7 0.00 0.00 0.00 66 1023.3
20260902090205 65 89 0.0 0.9 0.00 0.00 0.00 72 1023.4
20260902085704 64 127 0.0 1.7 0.00 0.00 0.00 77 1023.6
20260902084705 62 130 0.0 1.7 0.00 0.00 0.00 80 1023.4
20260902083705 60 267 0.0 1.7 0.00 0.00 0.00 84 1023.4
20260902083205 60 256 0.0 0.9 0.00 0.00 0.00 83 1023.4
20260902082705 59 189 0.0 0.9 0.00 0.00 0.00 83 1023.2
20260902082205 59 171 0.0 0.9 0.00 0.00 0.00 83 1023.1
20260902081705 59 171 0.0 1.7 0.00 0.00 0.00 85 1023.1
20260902081205 59 171 0.0 1.7 0.00 0.00 0.00 85 1023.2
20260902080706 58 171 0.0 0.9 0.00 0.00 0.00 86 1023.2
20260902080205 58 91 0.0 0.9 0.00 0.00 0.00 85 1023.1
20260902075705 58 91 0.0 0.9 0.00 0.00 0.00 86 1023.1
20260902075205 58 123 0.0 0.9 0.00 0.00 0.00 87 1023.0
20260902074704 57 115 0.0 0.9 0.00 0.00 0.00 88 1023.1
20260902074205 56 115 0.0 0.9 0.00 0.00 0.00 90 1023.2
20260902073705 56 115 0.0 0.9 0.00 0.00 0.00 90 1023.0
20260902073204 56 131 0.0 0.9 0.00 0.00 0.00 92 1023.0
20260902072705 55 131 0.0 0.9 0.00 0.00 0.00 93 1023.0
20260902071705 53 12 0.0 0.9 0.00 0.00 0.00 94 1023.1
20260902071204 53 12 0.0 0.9 0.00 0.00 0.00 95 1023.1
20260902070705 52 347 0.0 0.0 0.00 0.00 0.00 95 1023.1
20260902070205 51 333 0.0 0.0 0.00 0.00 0.00 95 1023.2
20260902065704 51 333 0.0 0.0 0.00 0.00 0.00 96 1023.2
20260902065205 51 333 0.0 0.0 0.00 0.00 0.00 95 1023.2
20260902064705 50 53 0.0 0.0 0.00 0.00 0.00 95 1023.2
20260902064204 50 53 0.0 0.0 0.00 0.00 0.00 96 1023.3
20260902063705 50 53 0.0 0.0 0.00 0.00 0.00 96 1023.2
20260902063205 50 53 0.0 0.0 0.00 0.00 0.00 96 1023.2
20260902062705 50 53 0.0 0.0 0.00 0.00 0.00 97 1023.2
20260902062205 50 53 0.0 2.6 0.00 0.00 0.00 97 1023.1
20260902061705 49 53 0.0 2.6 0.00 0.00 0.00 98 1023.2
20260902061205 48 53 0.0 0.0 0.00 0.00 0.00 97 1023.3
20260902060705 48 314 0.0 0.0 0.00 0.00 0.00 97 1023.4
20260902060205 47 314 0.0 0.0 0.00 0.00 0.00 97 1023.4
20260902055205 46 314 0.0 0.0 0.00 0.00 0.00 96 1023.3
20260902054705 46 314 0.0 0.0 0.00 0.00 0.00 96 1023.2
20260902053706 45 314 0.0 0.0 0.00 0.00 0.00 95 1023.2
20260902053205 45 314 0.0 0.0 0.00 0.00 0.00 94 1023.2
20260902052705 45 314 0.0 0.0 0.00 0.00 0.00 94 1023.2
20260902052205 45 314 0.0 0.0 0.00 0.00 0.00 94 1023.2
20260902051705 45 314 0.0 0.0 0.00 0.00 0.00 94 1023.1
20260902051205 45 314 0.0 0.9 0.00 0.00 0.00 94 1023.1
20260902050205 45 314 0.0 0.9 0.00 0.00 0.00 94 1023.0
20260902045704 45 314 0.0 0.0 0.00 0.00 0.00 94 1022.9
20260902044705 45 314 0.0 0.0 0.00 0.00 0.00 94 1023.0
20260902044205 45 314 0.0 0.0 0.00 0.00 0.00 94 1023.1
20260902043704 45 314 0.0 0.0 0.00 0.00 0.00 94 1023.0
20260902043208 45 314 0.0 0.0 0.00 0.00 0.00 94 1023.0
20260902042705 45 314 0.0 0.0 0.00 0.00 0.00 94 1023.0
20260902042204 45 314 0.0 0.0 0.00 0.00 0.00 94 1023.0
20260902041205 45 314 0.0 0.0 0.00 0.00 0.00 94 1023.1
20260902040704 45 314 0.0 0.0 0.00 0.00 0.00 94 1023.0
20260902040205 45 314 0.0 0.0 0.00 0.00 0.00 94 1023.0
20260902035705 45 314 0.0 0.0 0.00 0.00 0.00 94 1022.9
20260902035204 45 314 0.0 0.0 0.00 0.00 0.00 94 1022.9
20260902034205 45 314 0.0 0.0 0.00 0.00 0.00 94 1023.1
20260902033705 45 314 0.0 0.0 0.00 0.00 0.00 94 1023.0
20260902032705 45 314 0.0 0.0 0.00 0.00 0.00 94 1023.1
20260902031705 46 314 0.0 0.0 0.00 0.00 0.00 94 1023.1
20260902031205 46 314 0.0 0.0 0.00 0.00 0.00 93 1023.1
20260902025705 46 314 0.0 0.0 0.00 0.00 0.00 94 1023.1
20260902025205 46 314 0.0 0.9 0.00 0.00 0.00 94 1023.2
20260902024206 46 314 0.0 0.0 0.00 0.00 0.00 94 1023.2
20260902023705 46 314 0.0 0.0 0.00 0.00 0.00 93 1023.3
20260902023206 46 314 0.0 0.0 0.00 0.00 0.00 93 1023.2
20260902022704 46 314 0.0 0.0 0.00 0.00 0.00 93 1023.2
20260902022205 46 314 0.0 0.0 0.00 0.00 0.00 93 1023.2
20260902021705 46 314 0.0 0.0 0.00 0.00 0.00 93 1023.1
20260902021204 46 314 0.0 0.0 0.00 0.00 0.00 93 1023.1
20260902020705 47 314 0.0 0.0 0.00 0.00 0.00 93 1023.1
20260902020205 47 314 0.0 0.0 0.00 0.00 0.00 93 1023.1
20260902015704 47 314 0.0 0.0 0.00 0.00 0.00 93 1023.1
20260902014705 47 314 0.0 0.0 0.00 0.00 0.00 93 1023.2
20260902014204 47 314 0.0 0.0 0.00 0.00 0.00 93 1023.1
20260902013205 47 314 0.0 0.0 0.00 0.00 0.00 93 1023.2
20260902012704 47 314 0.0 0.0 0.00 0.00 0.00 93 1023.2
20260902012205 47 314 0.0 0.0 0.00 0.00 0.00 93 1023.2
20260902011705 47 314 0.0 0.0 0.00 0.00 0.00 93 1023.2
20260902011205 47 314 0.0 0.0 0.00 0.00 0.00 93 1023.3
20260902010705 47 314 0.0 0.0 0.00 0.00 0.00 92 1023.3
20260902010205 47 314 0.0 0.0 0.00 0.00 0.00 93 1023.4
20260902005705 47 314 0.0 0.0 0.00 0.00 0.00 93 1023.4
20260902004205 48 314 0.0 0.0 0.00 0.00 0.00 92 1023.3
20260902003705 48 314 0.0 0.0 0.00 0.00 0.00 93 1023.4
20260902002705 48 314 0.0 0.0 0.00 0.00 0.00 92 1023.4
20260902002205 48 314 0.0 0.0 0.00 0.00 0.00 92 1023.6
20260902000705 48 314 0.0 0.0 0.00 0.00 0.00 92 1023.7
20260902000205 48 314 0.0 0.0 0.00 0.00 0.00 92 1023.6
20260901235705 48 314 0.0 0.0 0.00 0.00 0.00 92 1023.6
20260901235205 48 314 0.0 0.0 0.00 0.00 0.00 92 1023.7
20260901234705 48 314 0.0 0.0 0.00 0.00 0.00 91 1023.7
20260901233704 49 314 0.0 0.0 0.00 0.00 0.00 91 1023.7
20260901233205 49 314 0.0 0.0 0.00 0.00 0.00 91 1023.7
20260901232705 49 314 0.0 0.0 0.00 0.00 0.00 91 1023.7
20260901231705 49 314 0.0 0.0 0.00 0.00 0.00 91 1023.7
20260901231205 49 314 0.0 0.0 0.00 0.00 0.00 91 1023.8
20260901230705 49 314 0.0 0.0 0.00 0.00 0.00 91 1023.8
20260901230205 49 314 0.0 0.0 0.00 0.00 0.00 91 1023.8
20260901225705 50 314 0.0 0.0 0.00 0.00 0.00 91 1023.8
20260901225204 50 314 0.0 0.0 0.00 0.00 0.00 91 1023.7
20260901224705 50 314 0.0 0.0 0.00 0.00 0.00 91 1023.7
20260901224205 50 314 0.0 0.0 0.00 0.00 0.00 90 1023.7
20260901223206 50 314 0.0 0.0 0.00 0.00 0.00 90 1023.7
20260901222205 50 314 0.0 0.0 0.00 0.00 0.00 90 1023.7
20260901221705 50 314 0.0 0.0 0.00 0.00 0.00 90 1023.7
20260901221205 51 314 0.0 0.0 0.00 0.00 0.00 89 1023.7
20260901215705 51 314 0.0 0.0 0.00 0.00 0.00 89 1023.8
20260901215205 51 314 0.0 0.0 0.00 0.00 0.00 89 1023.8
20260901214705 51 314 0.0 0.0 0.00 0.00 0.00 89 1023.8
20260901214204 51 314 0.0 0.0 0.00 0.00 0.00 88 1023.8
20260901213705 51 314 0.0 0.0 0.00 0.00 0.00 88 1023.8
20260901213205 52 314 0.0 0.0 0.00 0.00 0.00 88 1023.7
20260901212705 52 276 0.0 0.0 0.00 0.00 0.00 88 1023.8
20260901212205 52 276 0.0 0.9 0.00 0.00 0.00 88 1023.8
20260901211705 52 276 0.0 0.9 0.00 0.00 0.00 87 1023.7
20260901211205 52 276 0.0 0.9 0.00 0.00 0.00 87 1023.7
20260901210705 52 276 0.0 0.9 0.00 0.00 0.00 87 1023.7
20260901210205 52 276 0.0 0.9 0.00 0.00 0.00 87 1023.7
20260901205705 53 276 0.0 0.0 0.00 0.00 0.00 87 1023.7
20260901205205 53 276 0.0 1.7 0.00 0.00 0.00 86 1023.8
20260901204705 53 276 0.0 1.7 0.00 0.00 0.00 86 1023.8
20260901204205 53 276 0.0 1.7 0.00 0.00 0.00 86 1023.8
20260901203705 53 276 0.0 0.0 0.00 0.00 0.00 85 1023.8
20260901203205 53 276 0.0 0.0 0.00 0.00 0.00 85 1023.8
20260901202705 54 276 0.0 0.0 0.00 0.00 0.00 85 1023.8
20260901202205 54 276 0.0 0.9 0.00 0.00 0.00 85 1023.7
20260901201705 54 276 0.0 0.9 0.00 0.00 0.00 84 1023.8
20260901201205 54 276 0.0 0.9 0.00 0.00 0.00 84 1023.8
20260901200205 55 276 0.0 0.9 0.00 0.00 0.00 83 1023.8
20260901195705 55 276 0.0 0.9 0.00 0.00 0.00 83 1023.7
20260901195205 55 276 0.0 0.0 0.00 0.00 0.00 83 1023.8
20260901194705 56 276 0.0 0.0 0.00 0.00 0.00 82 1023.7
20260901194205 56 276 0.0 1.7 0.00 0.00 0.00 82 1023.7
20260901193707 56 276 0.0 1.7 0.00 0.00 0.00 82 1023.7
20260901193205 56 276 0.0 1.7 0.00 0.00 0.00 82 1023.7
20260901192205 57 276 0.0 0.0 0.00 0.00 0.00 81 1023.7
20260901191705 57 276 0.0 0.0 0.00 0.00 0.00 81 1023.7
20260901191205 57 276 0.0 0.9 0.00 0.00 0.00 80 1023.6
20260901190705 57 276 0.0 0.9 0.00 0.00 0.00 80 1023.6
20260901190205 58 276 0.0 1.7 0.00 0.00 0.00 79
20260901185705 58 276 0.0 1.7 0.00 0.00 0.00 78 1023.6
20260901185205 58 276 0.0 0.0 0.00 0.00 0.00 78 1023.4
20260901184705 59 276 0.0 0.0 0.00 0.00 0.00 78 1023.3
20260901184205 59 275 0.0 0.0 0.00 0.00 0.00 77 1023.3
20260901183705 59 275 0.0 0.0 0.00 0.00 0.00 76 1023.2
20260901183205 60 275 0.0 0.0 0.00 0.00 0.00 76 1023.2
20260901182705 60 275 0.0 0.9 0.00 0.00 0.00 75
20260901181705 61 275 0.0 0.9 0.00 0.00 0.00 74 1023.1
20260901181204 62 275 0.0 0.0 0.00 0.00 0.00 72 1023.1
20260901180729 62 275 0.0 0.0 0.00 0.00 0.00 72 1023.0
20260901180205 62 275 0.0 0.0 0.00 0.00 0.00 71 1023.0
20260901175704 63 275 0.0 0.0 0.00 0.00 0.00 70 1022.9
20260901175205 63 275 0.0 0.0 0.00 0.00 0.00 70 1022.9
20260901174705 64 275 0.0 0.0 0.00 0.00 0.00 68 1022.9
20260901173705 64 275 0.0 2.6 0.00 0.00 0.00 67 1022.8
20260901173205 65 275 0.0 2.6 0.00 0.00 0.00 66 1022.8
20260901172723 65 309 0.9 2.6 0.00 0.00 0.00 63 1022.9
20260901172205 66 278 0.9 2.6 0.00 0.00 0.00 64 1022.8
20260901170205 67 275 0.9 5.2 0.00 0.00 0.00 61 1022.9
20260901165705 67 234 1.7 5.2 0.00 0.00 0.00 61 1023.0
20260901165205 68 340 2.6 5.2 0.00 0.00 0.00 59 1022.9
20260901164705 68 276 1.7 5.2 0.00 0.00 0.00 58 1022.9
20260901164205 68 278 1.7 5.2 0.00 0.00 0.00 58 1023.0
20260901163205 69 278 1.7 4.3 0.00 0.00 0.00 57 1023.0
20260901162705 69 282 1.7 4.3 0.00 0.00 0.00 56 1023.0
20260901162205 69 265 1.7 4.3 0.00 0.00 0.00 56 1022.9
20260901161705 69 271 1.7 4.3 0.00 0.00 0.00 55 1022.9
20260901161205 69 356 1.7 6.1 0.00 0.00 0.00 56 1022.9
20260901160705 69 299 2.6 6.1 0.00 0.00 0.00 55 1022.9
20260901160205 70 203 2.6 6.1 0.00 0.00 0.00 53 1022.9
20260901155705 70 212 2.6 5.2 0.00 0.00 0.00 53 1022.9
20260901154204 70 334 1.7 6.1 0.00 0.00 0.00 54 1022.9
20260901153705 71 300 2.6 6.1 0.00 0.00 0.00 54 1022.9
20260901153205 71 281 2.6 6.1 0.00 0.00 0.00 54 1022.9
20260901152705 70 330 1.7 6.1 0.00 0.00 0.00 55 1022.9
20260901151204 69 295 1.7 5.2 0.00 0.00 0.00 56 1022.9
20260901150205 69 1 2.6 5.2 0.00 0.00 0.00 56 1022.9
20260901145705 69 356 2.6 5.2 0.00 0.00 0.00 55 1023.0
20260901145204 70 341 2.6 5.2 0.00 0.00 0.00 54 1022.9
20260901144705 70 276 1.7 7.0 0.00 0.00 0.00 53 1022.9
20260901144205 70 330 2.6 7.0 0.00 0.00 0.00 54 1022.9
20260901143705 70 237 2.6 7.0 0.00 0.00 0.00 52 1022.9
20260901143205 70 212 2.6 4.3 0.00 0.00 0.00 53 1022.9
20260901142705 70 323 2.6 6.1 0.00 0.00 0.00 55 1022.9
20260901141705 70 20 2.6 7.0 0.00 0.00 0.00 53 1023.0
20260901141205 70 303 3.5 7.0 0.00 0.00 0.00 54 1023.0
20260901140705 69 285 3.5 7.0 0.00 0.00 0.00 54 1023.1
20260901140204 69 262 2.6 6.1 0.00 0.00 0.00 55 1023.1
20260901135705 69 295 2.6 6.1 0.00 0.00 0.00 55 1023.1
20260901135205 69 340 2.6 5.2 0.00 0.00 0.00 56 1023.1
20260901134705 69 273 1.7 6.1 0.00 0.00 0.00 55 1023.1
20260901134204 68 253 2.6 7.0 0.00 0.00 0.00 57 1023.1
20260901133705 69 285 3.5 7.8 0.00 0.00 0.00 55
20260901133205 69 226 3.5 8.7 0.00 0.00 0.00 53 1023.2
20260901132705 70 199 4.3 8.7 0.00 0.00 0.00 55 1023.2
20260901132205 69 328 3.5 8.7 0.00 0.00 0.00 55 1023.2
20260901131705 70 304 3.5 8.7 0.00 0.00 0.00 52 1023.2
20260901131204 70 324 3.5 8.7 0.00 0.00 0.00 53 1023.2
20260901130705 69 288 2.6 7.8 0.00 0.00 0.00 53 1023.2
20260901130205 69 285 2.6 7.8 0.00 0.00 0.00 57 1023.3
20260901125705 68 15 4.3 7.8 0.00 0.00 0.00 56 1023.3
20260901125205 69 275 3.5 8.7 0.00 0.00 0.00 55 1023.4
20260901124705 69 321 3.5 8.7 0.00 0.00 0.00 54 1023.6
20260901124205 69 346 3.5 11.3 0.00 0.00 0.00 54 1023.6
20260901123705 69 303 2.6 11.3 0.00 0.00 0.00 54 1023.6
20260901123205 69 290 2.6 7.0 0.00 0.00 0.00 54 1023.6
20260901122705 69 288 3.5 8.7 0.00 0.00 0.00 54 1023.6
20260901122205 69 313 3.5 8.7 0.00 0.00 0.00 55 1023.6
20260901121705 70 18 4.3 8.7 0.00 0.00 0.00 55 1023.6
20260901121205 69 260 3.5 8.7 0.00 0.00 0.00 54 1023.6
20260901120706 69 41 3.5 7.8 0.00 0.00 0.00 55 1023.7
20260901120205 69 359 3.5 9.6 0.00 0.00 0.00 55 1023.7
20260901115705 69 254 4.3 9.6 0.00 0.00 0.00 55 1023.7
20260901114705 69 354 3.5 8.7 0.00 0.00 0.00 55 1023.7
20260901114205 69 345 2.6 7.8 0.00 0.00 0.00 58 1023.8
20260901113705 68 351 2.6 7.8 0.00 0.00 0.00 58 1023.7
20260901113205 67 268 3.5 7.8 0.00 0.00 0.00 59 1023.7
20260901112704 68 293 3.5 7.8 0.00 0.00 0.00 58 1023.7
20260901112205 68 269 3.5 7.8 0.00 0.00 0.00 58 1023.8
20260901111705 67 295 3.5 7.0 0.00 0.00 0.00 57 1023.8
20260901111204 67 273 3.5 8.7 0.00 0.00 0.00 60 1023.8
20260901110705 67 343 3.5 10.4 0.00 0.00 0.00 61 1023.8
20260901110205 67 262 4.3 10.4 0.00 0.00 0.00 62 1023.8
20260901105704 67 309 3.5 7.0 0.00 0.00 0.00 61 1023.8
20260901105205 67 293 2.6 7.8 0.00 0.00 0.00 60 1023.8
20260901104205 66 305 4.3 7.8 0.00 0.00 0.00 58 1023.9
20260901103705 67 283 2.6 8.7 0.00 0.00 0.00 58 1023.8
20260901102705 67 330 3.5 8.7 0.00 0.00 0.00 60 1024.0
20260901102234 67 348 1.7 6.1 0.00 0.00 0.00 63 1024.1
20260901101205 65 241 2.6 7.8 0.00 0.00 0.00 66 1024.0
20260901100727 64 266 3.5 7.8 0.00 0.00 0.00 66 1024.0
20260901100205 65 321 3.5 7.8 0.00 0.00 0.00 63 1024.1
20260901095705 66 304 3.5 8.7 0.00 0.00 0.00 63 1024.1
20260901095205 66 284 3.5 8.7 0.00 0.00 0.00 63 1024.1
20260901094705 65 306 3.5 7.8 0.00 0.00 0.00 65 1024.0
20260901094205 65 255 2.6 8.7 0.00 0.00 0.00 67 1024.0
20260901093729 64 19 3.5 8.7 0.00 0.00 0.00 67 1024.0
20260901093205 64 293 3.5 8.7 0.00 0.00 0.00 65 1024.1